Hamilton Island, Australia

10:10 AM AEST on July 25, 2017 (GMT +1000)
Hamilton Island

Weather History for YBHM - April, 2013

Change the Weather History Date:

Thursday, April 25, 2013

  Actual Average Record
Temperature  
Mean Temperature 79 °F -  
Max Temperature 82 °F - - ()
Min Temperature 76 °F - - ()
Cooling Degree Days 14    
Growing Degree Days 29 (Base 50)    
Moisture  
Dew Point 72 °F    
Average Humidity 82    
Maximum Humidity 94    
Minimum Humidity 69    
Precipitation  
Precipitation 0.00 in - - ()
Sea Level Pressure  
Sea Level Pressure 30.02 in    
Wind  
Wind Speed 12 mph ()    
Max Wind Speed 21 mph    
Max Gust Speed -    
T = Trace of Precipitation, MM = Missing Value Source: Averaged Metar Reports

Daily Weather History Graph

Daily Weather History Graph

Search for Another Location

Airport or City:

Trip Planner

Search our weather history database for the weather conditions in past years. The results will help you decide how hot, cold, wet, or windy it might be!

Date:

Astronomy

Apr. 25, 2013 Rise Set
Actual Time 6:18 AM AEST 5:45 PM AEST
Civil Twilight 5:55 AM AEST 6:08 PM AEST
Nautical Twilight 5:29 AM AEST 6:34 PM AEST
Astronomical Twilight 5:03 AM AEST 7:00 PM AEST
Moon 5:14 PM AEST 5:21 AM AEST
Length of Visible Light 12h 12m
Length of Day
11h 27m
Waxing Gibbous, 99% of the Moon is Illuminated
Apr 25
Waxing Gibbous
Apr 26
Full
May 2
Last Quarter
May 10
New
May 18
First Quarter

Hourly Weather History & Observations

Time (AEST) Temp. Heat Index Dew Point Humidity Pressure Visibility Wind Dir Wind Speed Gust Speed Precip Events Conditions
12:00 AM 77 °F - 73 °F 85% 30.01 in - East 8.1 mph - -  
12:00 AM 77.0 °F - 73.4 °F 89% 30.01 in - East 8.1 mph - N/A   Unknown
12:30 AM 77.0 °F - 73.4 °F 89% 30.01 in - East 12.7 mph - N/A   Unknown
1:00 AM 77.0 °F - 73.4 °F 89% 29.98 in - East 15.0 mph - N/A   Unknown
1:30 AM 77.0 °F - 71.6 °F 83% 29.98 in - ENE 10.4 mph - N/A   Unknown
2:00 AM 77.0 °F - 71.6 °F 83% 29.98 in - East 9.2 mph - N/A   Unknown
2:30 AM 77.0 °F - 71.6 °F 83% 29.98 in - ENE 9.2 mph - N/A   Unknown
3:00 AM 76 °F - 72 °F 82% 29.98 in - East 10.4 mph - -  
3:00 AM 77.0 °F - 71.6 °F 83% 29.98 in - East 10.4 mph - N/A   Unknown
3:30 AM 77.0 °F - 71.6 °F 83% 29.98 in - East 12.7 mph - N/A   Unknown
4:00 AM 77.0 °F - 71.6 °F 83% 29.98 in - ENE 11.5 mph - N/A   Unknown
4:30 AM 77.0 °F - 71.6 °F 83% 29.98 in - ENE 11.5 mph - N/A   Unknown
5:00 AM 77.0 °F - 71.6 °F 83% 29.98 in - East 11.5 mph - N/A   Unknown
5:30 AM 77.0 °F - 71.6 °F 83% 30.01 in - East 12.7 mph - N/A   Unknown
6:00 AM 76 °F - 71 °F 80% 30.01 in - East 11.5 mph - -  
6:00 AM 77.0 °F - 71.6 °F 83% 30.01 in - East 11.5 mph - N/A   Unknown
6:30 AM 77.0 °F - 71.6 °F 83% 30.04 in - East 12.7 mph - N/A   Unknown
7:00 AM 77.0 °F - 71.6 °F 83% 30.04 in - East 12.7 mph - N/A   Unknown
7:30 AM 78.8 °F - 73.4 °F 83% 30.04 in - East 13.8 mph - N/A   Unknown
8:00 AM 78.8 °F - 73.4 °F 83% 30.04 in - East 12.7 mph - N/A   Unknown
8:30 AM 78.8 °F - 71.6 °F 78% 30.06 in - East 12.7 mph - N/A   Unknown
9:00 AM 80 °F - 72 °F 70% 30.06 in - East 11.5 mph - -  
9:00 AM 80.6 °F 84.6 °F 71.6 °F 74% 30.06 in - East 11.5 mph - N/A   Unknown
9:30 AM 80.6 °F 84.6 °F 71.6 °F 74% 30.06 in - East 12.7 mph - N/A   Unknown
10:00 AM 80.6 °F 84.6 °F 71.6 °F 74% 30.06 in - ESE 10.4 mph - N/A   Unknown
10:30 AM 82.4 °F 87.2 °F 71.6 °F 70% 30.06 in - East 9.2 mph - N/A   Unknown
11:00 AM 80.6 °F 84.6 °F 71.6 °F 74% 30.06 in - East 9.2 mph - N/A   Unknown
11:30 AM 80.6 °F 84.6 °F 71.6 °F 74% 30.04 in - East 9.2 mph - N/A   Unknown
12:00 PM 80.6 °F 84.6 °F 71.6 °F 74% 30.04 in - East 11.5 mph - N/A   Unknown
1:00 PM 80.6 °F 83.9 °F 69.8 °F 70% 30.01 in - ESE 12.7 mph - N/A   Unknown
1:30 PM 80.6 °F 84.6 °F 71.6 °F 74% 30.01 in - ESE 12.7 mph - N/A   Unknown
2:00 PM 80.6 °F 84.6 °F 71.6 °F 74% 30.01 in - ESE 12.7 mph - N/A   Unknown
2:30 PM 80.6 °F 84.6 °F 71.6 °F 74% 29.98 in - ESE 13.8 mph - N/A   Unknown
3:00 PM 80 °F - 71 °F 69% 30.00 in - ESE 12.7 mph - -  
3:00 PM 80.6 °F 84.6 °F 71.6 °F 74% 29.98 in - ESE 12.7 mph - N/A   Unknown
3:30 PM 80.6 °F 84.6 °F 71.6 °F 74% 29.98 in - ESE 12.7 mph - N/A   Unknown
4:00 PM 78.8 °F - 71.6 °F 78% 29.98 in - ESE 13.8 mph - N/A   Unknown
4:30 PM 78.8 °F - 71.6 °F 78% 30.01 in - ESE 15.0 mph - N/A   Unknown
5:00 PM 77.0 °F - 71.6 °F 83% 30.01 in - ESE 15.0 mph - N/A   Unknown
5:30 PM 77.0 °F - 73.4 °F 89% 30.01 in - SE 16.1 mph - N/A   Unknown
6:00 PM 77 °F - 73 °F 84% 30.04 in - SE 17.3 mph - -  
6:00 PM 77.0 °F - 73.4 °F 89% 30.04 in - SE 17.3 mph - N/A   Unknown
6:30 PM 77.0 °F - 73.4 °F 89% 30.04 in - SE 17.3 mph - N/A   Unknown
7:00 PM 77.0 °F - 73.4 °F 89% 30.04 in - SE 19.6 mph - N/A   Unknown
7:30 PM 77.0 °F - 73.4 °F 89% 30.06 in - SE 20.7 mph - N/A   Unknown
8:00 PM 77.0 °F - 75.2 °F 94% 30.06 in - SE 19.6 mph - N/A   Unknown
8:30 PM 77.0 °F - 73.4 °F 89% 30.06 in - SE 20.7 mph - N/A   Unknown
9:00 PM 77 °F - 73 °F 85% 30.08 in - SE 20.7 mph - -  
9:00 PM 77.0 °F - 73.4 °F 89% 30.06 in - SE 20.7 mph - N/A   Unknown
9:30 PM 77.0 °F - 73.4 °F 89% 30.06 in - ESE 18.4 mph - N/A   Unknown
10:00 PM 77.0 °F - 71.6 °F 83% 30.06 in - ESE 20.7 mph - N/A   Unknown
10:30 PM 77.0 °F - 73.4 °F 89% 30.06 in - ESE 17.3 mph - N/A   Unknown
11:00 PM 77.0 °F - 73.4 °F 89% 30.06 in - SE 17.3 mph - N/A   Unknown
11:30 PM 77.0 °F - 73.4 °F 89% 30.06 in - SE 18.4 mph - N/A   Unknown